[[{"header":{"parameterUnit":"m.s-1","parameterCategory":1,"la1":30.2991,"la2":30.254,"lo1":-89.0895,"lo2":-89.0444,"dy":0.0017,"dx":0.0017,"nx":28,"ny":28,"refTime":"2025-03-19T03:00:00:Z","depth":0,"parameterNumber":2,"parameterNumberName":"U-component_of_WINDS"},"data":[0,0,0,0,0,0,0,0,0,0,0,0,0,0,0,0,0,0,0,0,0,0,0,0,0,0,0,0,0,0,0,0,0,0,0,0,0,0,0,0,0,0,0,0,0,0,0,0,0,0,0,0,0,0,0,0,0,0,5.1054,5.1054,0,5.1129,5.113,5.113,5.1099,5.1097,5.1095,5.1093,5.1169,5.1173,5.1176,0,0,0,0,0,0,0,0,0,0,0,0,0,5.0883,5.0886,5.1053,5.1054,5.1055,5.1129,5.113,5.1131,5.1099,5.1097,5.1094,5.1092,5.1168,5.1172,5.1177,0,0,0,0,0,0,0,0,0,0,0,0,0,5.0958,5.0888,5.1053,5.1048,5.1049,5.1128,5.113,5.1131,5.1099,5.1097,5.1094,5.1091,5.1166,5.1172,5.1177,5.1266,0,0,5.1194,5.1196,0,0,0,0,0,0,0,0,5.0953,5.0964,5.1048,5.1049,5.1049,5.1101,5.1097,5.1176,5.11,5.108,5.1093,5.109,5.1149,5.1155,5.1175,5.1269,5.1273,5.1195,5.1198,5.12,5.1202,0,0,0,0,0,0,0,5.0948,5.096,5.1083,5.1049,5.105,5.1043,5.105,5.1112,5.1129,5.1082,5.1079,5.1089,5.1148,5.117,5.1177,5.1274,5.1194,5.1199,5.1203,5.1205,5.1447,5.145,0,0,0,0,0,0,5.0943,5.0956,5.1081,5.1085,5.0994,5.1048,5.1056,5.1087,5.1128,5.1131,5.1091,5.1087,5.1162,5.1171,5.118,5.1288,5.12,5.1205,5.1209,5.1444,5.1448,5.1451,0,0,0,0,0,0,5.094,5.0954,5.1078,5.102,5.1036,5.1054,5.1089,5.109,5.1112,5.1135,5.1138,5.111,5.116,5.1172,5.1245,5.129,5.1208,5.1213,5.1441,5.1445,5.145,5.1504,0,0,0,0,0,0,5.0935,5.0953,5.0987,5.1021,5.1039,5.1142,5.1092,5.1094,5.1122,5.1117,5.1154,5.1157,5.1159,5.1237,5.1251,5.1296,5.1217,5.1437,5.1443,5.1448,5.1498,5.151,5.152,0,0,0,0,0,5.0929,5.0998,5.0989,5.1004,5.1081,5.1145,5.1155,5.1156,5.1126,5.116,5.1175,5.1156,5.1283,5.1245,5.126,5.1308,5.1434,5.1441,5.1448,5.1493,5.1508,5.152,0,0,0,0,0,0,5.0967,5.1002,5.0992,5.1075,5.1107,5.1139,5.1182,5.117,5.1211,5.1205,5.1204,5.1213,5.129,5.1306,5.1263,5.1397,5.1354,5.1364,5.1383,5.1397,5.1408,5.1402,5.1222,0,0,0,0,0,5.0985,5.1034,5.1062,5.1132,5.1149,5.1163,5.1191,5.1189,5.1222,5.1236,5.1256,5.1289,5.1337,5.1368,5.1413,5.1501,5.1509,5.1541,5.1552,5.1561,5.157,5.162,5.1635,5.1474,5.1474,5.1474,0,0,5.1022,5.1048,5.1079,5.1141,5.1166,5.1217,5.1175,5.123,5.1268,5.1244,5.1315,5.1332,5.1369,5.1451,5.1488,5.1467,5.1616,5.157,5.1577,5.1581,5.1629,5.1644,5.1657,5.1479,5.1478,5.1477,0,0,5.1117,5.1141,5.1203,5.123,5.1269,5.1278,5.1293,5.1328,5.1339,5.141,5.1394,5.144,5.1521,5.1549,5.1574,5.1683,5.1668,5.1698,5.1754,5.1803,5.1816,5.1827,5.1868,5.1882,5.1707,5.1707,5.1707,0,5.1159,5.1235,5.1236,5.1294,5.1323,5.1305,5.1369,5.1394,5.1446,5.1466,5.1442,5.1546,5.1569,5.1659,5.1686,5.1706,5.1724,5.1693,5.1814,5.1825,5.1836,5.1874,5.1889,5.171,5.171,5.171,5.1709,0,5.1285,5.1339,5.1385,5.1437,5.147,5.1531,5.1542,5.1576,5.1573,5.1585,5.166,5.1688,5.1739,5.176,5.1756,5.185,5.1836,5.1813,5.177,5.1855,5.1891,5.1906,5.1715,5.1714,5.1713,5.1712,0,0,5.1404,5.1458,5.1475,5.1499,5.1543,5.1584,5.1645,5.1696,5.1726,5.1763,5.1815,5.1886,5.1866,5.1894,5.1894,5.1937,5.2024,5.1909,5.191,5.193,5.2132,5.2149,5.2166,5.2015,5.2018,5.202,5.2129,0,5.1503,5.1609,5.1614,5.1711,5.1762,5.1747,5.18,5.1833,5.1847,5.1893,5.1908,5.1959,5.1928,5.1945,5.1987,5.2005,5.2065,5.1997,5.2063,5.2066,5.2055,5.2185,5.2202,5.2304,5.2143,5.2145,5.2147,0,5.1631,5.1674,5.1777,5.1816,5.1837,5.1885,5.1934,5.1977,5.2015,5.2023,5.2056,5.205,5.2114,5.2069,5.2157,5.2111,5.2139,5.2152,5.2156,5.2162,5.2111,5.2195,5.2336,5.2351,5.2169,5.2167,5.2166,0,5.1709,5.1793,5.1866,5.1887,5.1933,5.1968,5.1989,5.2024,5.2056,5.2099,5.212,5.2169,5.2196,5.2235,5.2244,5.221,5.2333,5.2288,5.2341,5.2341,5.2367,5.2365,5.2515,5.2385,5.2385,5.2384,5.2384,0,5.1819,5.1883,5.1901,5.1946,5.2018,5.2023,5.2094,5.2113,5.2145,5.2194,5.2185,5.2231,5.2239,5.2288,5.2295,5.2368,5.238,5.2388,5.2389,5.2389,5.2388,5.2407,5.24,5.2388,5.2387,5.2387,5.2386,0,5.1918,5.1932,5.2011,5.205,5.2062,5.2113,5.2146,5.219,5.2204,5.2266,5.2281,5.2303,5.236,5.2373,5.244,5.2445,5.2532,5.2526,5.2519,5.2519,5.2572,5.2567,5.2739,5.2762,5.2616,5.2618,5.2619,0,5.1987,5.2036,5.2081,5.2114,5.2137,5.2189,5.2222,5.223,5.2265,5.2314,5.2352,5.2408,5.2453,5.2545,5.2567,5.2619,5.2615,5.2672,5.2622,5.2622,5.2617,5.2614,5.262,5.2681,5.2682,5.2684,5.2685,0,5.2109,5.2114,5.2162,5.2214,5.2254,5.2295,5.2334,5.2361,5.2375,5.2415,5.2474,5.2509,5.2579,5.2635,5.2688,5.271,5.2701,5.27,5.2716,5.2716,5.2711,5.2715,5.2545,5.2696,5.2695,5.2694,5.2693,5.2693,5.2195,5.2239,5.2279,5.2333,5.2364,5.2401,5.2445,5.2466,5.2515,5.2573,5.2575,5.264,5.2679,5.2749,5.2775,5.2826,5.2808,5.283,5.2836,5.2841,5.2846,5.2703,5.2836,5.2835,5.2835,5.2835,5.2834,0,5.2317,5.2343,5.2393,5.2449,5.2493,5.2481,5.2524,5.2562,5.2619,5.2656,5.2702,5.2771,5.2826,5.2854,5.291,5.2945,5.2942,5.296,5.2957,5.2963,5.2858,5.284,5.2961,5.2961,5.2961,5.2961,5.2961,5.2961,5.2386,5.2461,5.2472,5.2562,5.2587,5.2651,5.2677,5.2712,5.2742,5.282,5.2867,5.2885,5.2919,5.2977,5.3028,5.3035,5.3056,5.3076,5.3081,5.2983,5.297,5.2957,5.294,5.3081,5.3081,5.3181,5.3182,5.3183]},{"header":{"parameterUnit":"m.s-1","parameterCategory":1,"la1":30.2991,"la2":30.254,"lo1":-89.0895,"lo2":-89.0444,"dy":0.0017,"dx":0.0017,"nx":28,"ny":28,"refTime":"2025-03-19T03:00:00:Z","depth":0,"parameterNumber":3,"parameterNumberName":"V-component_of_WINDS"},"data":[0,0,0,0,0,0,0,0,0,0,0,0,0,0,0,0,0,0,0,0,0,0,0,0,0,0,0,0,0,0,0,0,0,0,0,0,0,0,0,0,0,0,0,0,0,0,0,0,0,0,0,0,0,0,0,0,0,0,-6.8649,-6.865,0,-6.8751,-6.8753,-6.8754,-6.8737,-6.8735,-6.8733,-6.8732,-6.8832,-6.8836,-6.884,0,0,0,0,0,0,0,0,0,0,0,0,0,-6.8436,-6.844,-6.8649,-6.865,-6.8652,-6.8751,-6.8753,-6.8754,-6.8737,-6.8735,-6.8733,-6.8731,-6.8831,-6.8836,-6.8841,0,0,0,0,0,0,0,0,0,0,0,0,0,-6.8533,-6.8442,-6.8649,-6.8655,-6.8657,-6.8751,-6.8753,-6.8754,-6.8738,-6.8735,-6.8732,-6.873,-6.8829,-6.8835,-6.8842,-6.8934,0,0,-6.8861,-6.8864,0,0,0,0,0,0,0,0,-6.8527,-6.854,-6.8653,-6.8655,-6.8657,-6.8729,-6.8714,-6.8814,-6.8738,-6.8707,-6.8732,-6.8729,-6.8799,-6.8808,-6.8833,-6.8939,-6.8943,-6.8862,-6.8866,-6.8868,-6.887,0,0,0,0,0,0,0,-6.852,-6.8536,-6.8689,-6.8655,-6.8657,-6.8652,-6.8663,-6.8733,-6.8766,-6.8709,-6.8709,-6.8721,-6.88,-6.8827,-6.8835,-6.8944,-6.8862,-6.8867,-6.8871,-6.8874,-6.9133,-6.9136,0,0,0,0,0,0,-6.8512,-6.853,-6.8686,-6.8692,-6.8584,-6.8658,-6.867,-6.8708,-6.8766,-6.8772,-6.8723,-6.872,-6.8817,-6.8828,-6.8839,-6.8952,-6.8868,-6.8874,-6.8878,-6.913,-6.9134,-6.9137,0,0,0,0,0,0,-6.8508,-6.8526,-6.8682,-6.8611,-6.8631,-6.8665,-6.8708,-6.8712,-6.8739,-6.8776,-6.8782,-6.8745,-6.8815,-6.883,-6.8911,-6.8955,-6.8877,-6.8883,-6.9127,-6.9132,-6.9136,-6.9179,0,0,0,0,0,0,-6.8502,-6.8525,-6.8561,-6.8612,-6.8635,-6.8754,-6.871,-6.8716,-6.875,-6.8747,-6.8798,-6.8804,-6.8814,-6.8902,-6.8918,-6.8963,-6.8888,-6.9123,-6.9129,-6.9134,-6.9174,-6.9184,-6.9193,0,0,0,0,0,-6.8494,-6.8567,-6.8563,-6.8582,-6.868,-6.8756,-6.8769,-6.8781,-6.8754,-6.879,-6.8815,-6.8802,-6.8948,-6.891,-6.8928,-6.8976,-6.912,-6.9127,-6.9134,-6.9169,-6.9182,-6.9193,0,0,0,0,0,0,-6.8518,-6.8574,-6.857,-6.8662,-6.8705,-6.8753,-6.8799,-6.8794,-6.8844,-6.8839,-6.8851,-6.8862,-6.8945,-6.8969,-6.8925,-6.9069,-6.903,-6.9041,-6.9051,-6.9064,-6.9074,-6.9066,-6.8894,0,0,0,0,0,-6.8534,-6.8592,-6.8638,-6.8715,-6.8737,-6.8765,-6.8798,-6.8804,-6.8848,-6.8866,-6.8896,-6.8938,-6.8994,-6.903,-6.9083,-6.9177,-6.9188,-6.9219,-6.9229,-6.9237,-6.9246,-6.9299,-6.9313,-6.916,-6.916,-6.9159,0,0,-6.8567,-6.8605,-6.8641,-6.872,-6.8754,-6.8814,-6.878,-6.8843,-6.8887,-6.8875,-6.8955,-6.8979,-6.9027,-6.9116,-6.9156,-6.9137,-6.9291,-6.9246,-6.9252,-6.9256,-6.9307,-6.9322,-6.9335,-6.9164,-6.9163,-6.9163,0,0,-6.8659,-6.8693,-6.8762,-6.8798,-6.8851,-6.8869,-6.8886,-6.8936,-6.8953,-6.9033,-6.9026,-6.9078,-6.9173,-6.9208,-6.9239,-6.9347,-6.9337,-6.9364,-6.9415,-6.9467,-6.9479,-6.949,-6.9529,-6.9543,-6.9373,-6.9373,-6.9373,0,-6.8693,-6.8783,-6.8797,-6.8863,-6.8899,-6.8893,-6.8963,-6.8996,-6.9063,-6.9087,-6.9066,-6.9187,-6.9219,-6.9317,-6.9344,-6.9368,-6.9387,-6.9357,-6.9476,-6.9487,-6.9497,-6.9535,-6.955,-6.9376,-6.9375,-6.9375,-6.9375,0,-6.8824,-6.8886,-6.8936,-6.9003,-6.9044,-6.9111,-6.9135,-6.9175,-6.9178,-6.9199,-6.9282,-6.9321,-6.9382,-6.9406,-6.9409,-6.9505,-6.9492,-6.9474,-6.9434,-6.9515,-6.955,-6.9565,-6.938,-6.9379,-6.9378,-6.9377,0,0,-6.893,-6.9007,-6.9025,-6.9057,-6.9116,-6.9164,-6.9232,-6.9294,-6.9329,-6.9375,-6.9432,-6.9515,-6.9499,-6.9533,-6.954,-6.9586,-6.967,-6.9562,-6.9563,-6.9581,-6.978,-6.9794,-6.981,-6.9665,-6.9668,-6.967,-6.9776,0,-6.9028,-6.9149,-6.9165,-6.9271,-6.933,-6.9327,-6.9386,-6.9428,-6.945,-6.9503,-6.9526,-6.9585,-6.9559,-6.958,-6.9625,-6.9651,-6.971,-6.9643,-6.9717,-6.972,-6.9705,-6.9828,-6.9843,-6.9941,-6.979,-6.9792,-6.9794,0,-6.9157,-6.9211,-6.9324,-6.9378,-6.9403,-6.9455,-6.9515,-6.9566,-6.9614,-6.9627,-6.9667,-6.9669,-6.9739,-6.9698,-6.9794,-6.9748,-6.9779,-6.9797,-6.9801,-6.9808,-6.9761,-6.9839,-6.9972,-6.9987,-6.9816,-6.9814,-6.9813,0,-6.9225,-6.9325,-6.9406,-6.9433,-6.9497,-6.9535,-6.9563,-6.9609,-6.9647,-6.9698,-6.9723,-6.9782,-6.9814,-6.9859,-6.9877,-6.9845,-6.9972,-6.9932,-6.9984,-6.9984,-7.001,-7.0009,-7.0151,-7.0031,-7.0031,-7.0031,-7.003,0,-6.9332,-6.9401,-6.9438,-6.9487,-6.9566,-6.9584,-6.966,-6.9687,-6.9729,-6.9783,-6.9783,-6.9835,-6.9855,-6.991,-6.9924,-7.0002,-7.0016,-7.0028,-7.0031,-7.0028,-7.0027,-7.0048,-7.0042,-7.0035,-7.0034,-7.0033,-7.0032,0,-6.942,-6.9447,-6.9536,-6.9591,-6.9606,-6.9661,-6.9708,-6.9756,-6.9778,-6.9848,-6.9865,-6.99,-6.9964,-6.9987,-7.0064,-7.0074,-7.0165,-7.0162,-7.0149,-7.0149,-7.0201,-7.0196,-7.0362,-7.0385,-7.025,-7.0251,-7.0252,0,-6.9486,-6.954,-6.9602,-6.964,-6.967,-6.973,-6.977,-6.979,-6.983,-6.9891,-6.9932,-6.9997,-7.005,-7.0153,-7.0184,-7.0244,-7.0242,-7.0296,-7.0251,-7.0247,-7.0244,-7.024,-7.0246,-7.0304,-7.0306,-7.0307,-7.0308,0,-6.9601,-6.9613,-6.967,-6.9733,-6.978,-6.983,-6.9878,-6.9909,-6.9936,-6.9982,-7.0049,-7.009,-7.0171,-7.0235,-7.0297,-7.0325,-7.0321,-7.0323,-7.0338,-7.0335,-7.0326,-7.0332,-7.0172,-7.0318,-7.0317,-7.0316,-7.0316,-7.0315,-6.9681,-6.973,-6.9782,-6.9846,-6.9885,-6.9931,-6.998,-7.001,-7.0066,-7.0135,-7.0143,-7.0216,-7.0265,-7.0348,-7.0379,-7.0435,-7.042,-7.0442,-7.0448,-7.0453,-7.0457,-7.0318,-7.0446,-7.0446,-7.0446,-7.0446,-7.0445,0,-6.9797,-6.9831,-6.989,-6.9959,-7.001,-7.0005,-7.0058,-7.0101,-7.0165,-7.0212,-7.0265,-7.0343,-7.0406,-7.0443,-7.0507,-7.0545,-7.0545,-7.056,-7.0558,-7.0564,-7.0467,-7.0447,-7.056,-7.056,-7.056,-7.056,-7.056,-7.0559,-6.9863,-6.9946,-6.9964,-7.0066,-7.0099,-7.0172,-7.0203,-7.0246,-7.0283,-7.0371,-7.0425,-7.0449,-7.0493,-7.056,-7.0617,-7.0627,-7.065,-7.0667,-7.0675,-7.0583,-7.0571,-7.056,-7.0542,-7.0672,-7.0672,-7.0769,-7.0769,-7.077]}]]